Location: Brno
(49.2000°N, 16.6330°E)
Time: 15:58:57
(UTC+02:00)

Cosmos 332 Rocket - Visible Passes

Search period start: 29 July 2016 00:00
Search period end: 08 August 2016 00:00
Orbit: 682 x 705 km, 74.0° (Epoch: 27 July)

Date Brightness Start Highest point End Pass type
(mag) Time Alt. Az. Time Alt. Az. Time Alt. Az.
29 Jul 4.0 04:26:37 10° SSW 04:31:24 72° ESE 04:36:16 10° NNE visible
30 Jul 5.4 03:28:22 10° SSE 03:32:26 28° E 03:36:33 10° NE visible
31 Jul 6.4 02:32:40 10° ESE 02:33:48 11° E 02:34:57 10° ENE visible
31 Jul 3.9 04:08:42 11° SSW 04:13:22 80° ESE 04:18:15 10° NNE visible
01 Aug 5.2 03:10:50 13° SSE 03:14:23 31° ESE 03:18:37 10° NE visible
02 Aug 6.2 02:13:51 10° ESE 02:15:42 12° E 02:17:33 10° ENE visible
02 Aug 3.8 03:51:38 17° SSW 03:55:21 87° ESE 04:00:15 10° NNE visible
03 Aug 5.0 02:53:41 20° SSE 02:56:18 34° ESE 03:00:41 10° NE visible
03 Aug 4.7 04:32:25 11° WSW 04:36:44 36° WNW 04:41:14 10° N visible
04 Aug 6.1 01:55:43 11° ESE 01:57:36 13° E 01:59:56 10° ENE visible
04 Aug 3.8 03:34:26 25° SSW 03:37:19 85° WNW 03:42:13 10° NNE visible
05 Aug 4.8 02:36:26 27° SSE 02:38:15 37° ESE 02:42:43 10° NE visible
05 Aug 4.8 04:15:09 14° WSW 04:18:45 33° NW 04:23:10 10° N visible
06 Aug 5.9 01:38:24 14° ESE 01:39:30 15° E 01:42:12 10° ENE visible
06 Aug 3.8 03:17:07 33° SSW 03:19:17 78° WNW 03:24:12 10° NNE visible
06 Aug 5.9 04:57:50 10° W 05:00:37 15° NW 05:03:27 10° N visible
07 Aug 4.6 02:19:03 35° SE 02:20:11 41° ESE 02:24:46 10° NE visible
07 Aug 5.0 03:57:46 17° WSW 04:00:46 30° NW 04:05:06 10° N visible
